Regional Weather Roundup
Issued by NWS

Home | Current Version | Previous Version | Text Only | Print | Product List | Glossary Off
Versions: 1 2 3 4 5 6 7 8 9 10 11 12 13 14 15 16 17 18 19 20 21 22 23 24 25 26 27 28 29 30 31 32 33 34 35 36 37 38 39 40 41 42 43 44 45 46 47 48 49 50

880
ASUS45 KSLC 240710
RWRUT

UTAH REGIONAL WEATHER ROUNDUP
NATIONAL WEATHER SERVICE SALT LAKE CITY UT
100 AM MDT MON APR 24 2017

UTZ001>011-023>025-240800-

NORTHERN UTAH

CITY           SKY/WX    TMP DP  RH WIND       PRES   REMARKS
BRIGHAM CITY   MOCLDY    45  39  80 SE3       29.80S
HILL AFB       MOCLDY    48  34  58 SE6       29.81R
LOGAN          PTCLDY    41  37  86 NE7       29.80R
OGDEN          MOCLDY    48  36  63 S7        29.79S
SALT LAKE CITY MOCLDY    52  40  63 SE9       29.80R
TOOELE VALLEY  CLOUDY    50  37  62 S16       29.80S
WENDOVER       MOCLDY    50  40  68 W3        29.79F
HEBER CITY     PTCLDY    36  32  87 CALM      29.85R
WEST JORDAN    MOCLDY    51  47  84 S8        29.82R

$$

UTZ011>015-024>027-240800-

CENTRAL/NORTHEAST UTAH

CITY           SKY/WX    TMP DP  RH WIND       PRES   REMARKS
PROVO AIRPORT  PTCLDY    45  40  82 S3        29.85R
MOAB/CANYONLAN PTCLDY    56  33  42 CALM      29.77R
DELTA          CLOUDY    43  37  81 S8        29.84S
PRICE          CLEAR     45  34  65 N7        29.83S
RICHFIELD      CLEAR     43  41  93 S5        29.90S
ROOSEVELT      CLEAR     46  34  61 N3        29.81R
VERNAL         CLOUDY    52  39  61 NE13      29.79F

$$

UTZ013>016-019>022-027-240800-

SOUTHERN UTAH

CITY           SKY/WX    TMP DP  RH WIND       PRES   REMARKS
BRYCE CANYON   CLEAR     37  26  64 N6        29.95S WCI  32
CEDAR CITY     CLEAR     45  31  58 NE7       29.87S
MILFORD        PTCLDY    44  36  73 W8        29.85F
ST GEORGE      MOSUNNY   62  27  26 SE3       29.74R
HANKSVILLE     CLEAR     50  30  46 NW6       29.81S
KANAB          CLEAR     48  32  53 NE5       29.86S
BLANDING       CLEAR     55  16  21 NW5       29.91R

$$

REGIONAL REPORTS     COLORADO/ARIZONA

CITY           SKY/WX    TMP DP  RH WIND       PRES   REMARKS
CRAIG, CO      LGT RAIN  45  40  82 CALM      29.87R
GRAND JUNCTION MOCLDY    60  33  36 W13       29.78R
RIFLE, CO      CLOUDY    57  33  40 NW15G26   29.81R
MONTROSE, CO   MOCLDY    62  23  22 W12       29.83R
CORTEZ, CO     CLEAR     54  23  30 S16       29.85S
COLORADO CITY    N/A     48  28  46 E3        29.86R
PAGE, AZ       PTCLDY    63  26  24 SE7       29.78R
GRAND CANYON   PTCLDY    54  17  23 SW12      29.94R
KINGMAN, AZ    CLEAR     62  26  25 S15       29.79S
FLAGSTAFF, AZ  CLEAR     54  15  21 SW13      29.96R

$$

REGIONAL REPORTS    NEVADA/IDAHO/WYOMING

CITY           SKY/WX    TMP DP  RH WIND       PRES   REMARKS
LAS VEGAS, NV  PTCLDY    73  17  12 S16       29.67R
ELY, NY        PTCLDY    34  29  82 S13       29.89S WCI  25
ELKO, NV       MOCLDY    44  31  60 CALM      29.81F
POCATELLO, ID  CLOUDY    49  36  61 S10       29.78F
BURLEY, ID     CLOUDY    47  36  65 S6        29.77F
EVANSTON, WY   CLEAR     36  30  79 S7        29.86S WCI  30
ROCK SPRINGS,  CLOUDY    39  35  86 SW12      29.84F WCI  32
KEMMERER, WY     N/A     36  32  87 E3        29.86F

$$




USA.gov is the U.S. government's official web portal to all federal, state and local government web resources and services.